When you browse on this site, cookies collect data to enhance your experience and personalize the content and advertising you see.
Visit our Privacy Policy to learn more. By continuing to use the site, you agree to this use of cookies and data.
  • In Romania
  • List of Countries
  • For 7 days
  • Water Temperature
  • Satellite Maps
  • Weather Map
  • Weather Widgets
  • user-avatar
    Login

    Hourly Weather Kultura

    Today, 20 May, Monday

    Time Temperature Precipitation Wind Pressure Humidity
    00:00 +3°C° 0 mm 3 mps 758 mmHg 70%
    01:00 +3°C° 0 mm 3 mps 758 mmHg 71%
    02:00 +2°C° 0 mm 3 mps 758 mmHg 73%
    03:00 +2°C° 0 mm 3 mps 758 mmHg 77%
    04:00 +3°C° 0 mm 3 mps 759 mmHg 74%
    05:00 +4°C° 0 mm 3 mps 759 mmHg 71%
    06:00 +4°C° 0 mm 4 mps 759 mmHg 69%
    07:00 +6°C° 0 mm 4 mps 759 mmHg 64%
    08:00 +7°C° 0 mm 4 mps 759 mmHg 60%
    09:00 +8°C° 0 mm 5 mps 759 mmHg 55%
    10:00 +9°C° 0.1 mm 5 mps 759 mmHg 55%
    11:00 +9°C° 0.1 mm 5 mps 759 mmHg 56%
    12:00 +9°C° 0.1 mm 5 mps 759 mmHg 56%
    13:00 +9°C° 0.1 mm 5 mps 759 mmHg 56%
    14:00 +9°C° 0.1 mm 5 mps 759 mmHg 56%
    15:00 +10°C° 0 mm 5 mps 759 mmHg 56%
    16:00 +10°C° 0.1 mm 5 mps 759 mmHg 58%
    17:00 +11°C° 0.1 mm 4 mps 759 mmHg 59%
    18:00 +10°C° 0.1 mm 4 mps 759 mmHg 61%
    19:00 +9°C° 0 mm 3 mps 759 mmHg 65%
    20:00 +8°C° 0 mm 3 mps 760 mmHg 68%
    21:00 +6°C° 0 mm 2 mps 760 mmHg 71%
    22:00 +5°C° 0 mm 3 mps 760 mmHg 73%
    23:00 +4°C° 0 mm 3 mps 760 mmHg 74%

    Tomorrow, 21 May, Tuesday

    Time Temperature Precipitation Wind Pressure Humidity
    00:00 +4°C° 0 mm 3 mps 760 mmHg 76%
    01:00 +4°C° 0 mm 3 mps 760 mmHg 77%
    02:00 +3°C° 0 mm 3 mps 761 mmHg 78%
    03:00 +3°C° 0 mm 3 mps 761 mmHg 79%
    04:00 +4°C° 0 mm 3 mps 761 mmHg 77%
    05:00 +5°C° 0 mm 4 mps 761 mmHg 74%
    06:00 +7°C° 0 mm 4 mps 761 mmHg 71%
    07:00 +8°C° 0 mm 4 mps 762 mmHg 63%
    08:00 +10°C° 0 mm 5 mps 762 mmHg 55%
    09:00 +12°C° 0 mm 5 mps 762 mmHg 47%
    10:00 +13°C° 0 mm 5 mps 762 mmHg 46%
    11:00 +13°C° 0 mm 5 mps 762 mmHg 45%
    12:00 +14°C° 0 mm 4 mps 761 mmHg 44%
    13:00 +14°C° 0 mm 5 mps 761 mmHg 43%
    14:00 +14°C° 0 mm 5 mps 761 mmHg 43%
    15:00 +15°C° 0 mm 5 mps 761 mmHg 43%
    16:00 +14°C° 0 mm 4 mps 761 mmHg 47%
    17:00 +14°C° 0 mm 3 mps 761 mmHg 51%
    18:00 +14°C° 0 mm 3 mps 761 mmHg 55%
    19:00 +13°C° 0 mm 2 mps 761 mmHg 57%
    20:00 +12°C° 0 mm 2 mps 761 mmHg 59%
    21:00 +10°C° 0 mm 1 mps 762 mmHg 62%
    22:00 +10°C° 0 mm 1 mps 762 mmHg 62%
    23:00 +8°C° 0 mm 2 mps 762 mmHg 63%

    Day after tomorrow, 22 May, Wednesday

    Time Temperature Precipitation Wind Pressure Humidity
    00:00 +8°C° 0 mm 2 mps 762 mmHg 64%
    01:00 +8°C° 0 mm 2 mps 762 mmHg 65%
    02:00 +8°C° 0 mm 2 mps 761 mmHg 67%
    03:00 +7°C° 0 mm 2 mps 761 mmHg 68%
    04:00 +8°C° 0 mm 2 mps 761 mmHg 68%
    05:00 +9°C° 0 mm 2 mps 761 mmHg 68%
    06:00 +10°C° 0 mm 2 mps 761 mmHg 68%
    07:00 +11°C° 0.7 mm 1 mps 760 mmHg 73%
    08:00 +11°C° 0.7 mm 1 mps 760 mmHg 77%
    09:00 +11°C° 0.7 mm 1 mps 760 mmHg 81%
    10:00 +10°C° 1.6 mm 2 mps 759 mmHg 84%
    11:00 +10°C° 1.6 mm 3 mps 759 mmHg 86%
    12:00 +10°C° 1.6 mm 4 mps 759 mmHg 89%
    13:00 +10°C° 0.5 mm 4 mps 758 mmHg 88%
    14:00 +11°C° 0.5 mm 3 mps 758 mmHg 88%
    15:00 +12°C° 0.5 mm 3 mps 757 mmHg 87%
    16:00 +12°C° 0.6 mm 3 mps 757 mmHg 88%
    17:00 +12°C° 0.6 mm 3 mps 757 mmHg 90%
    18:00 +13°C° 0.6 mm 2 mps 756 mmHg 91%
    19:00 +13°C° 0.1 mm 2 mps 756 mmHg 90%
    20:00 +13°C° 0.1 mm 2 mps 756 mmHg 90%
    21:00 +13°C° 0.1 mm 2 mps 756 mmHg 90%
    22:00 +12°C° 0 mm 3 mps 756 mmHg 89%
    23:00 +12°C° 0 mm 3 mps 755 mmHg 88%

    23 May, Thursday

    Time Temperature Precipitation Wind Pressure Humidity
    00:00 +12°C° 0 mm 4 mps 755 mmHg 88%
    01:00 +12°C° 0 mm 4 mps 755 mmHg 88%
    02:00 +12°C° 0 mm 4 mps 755 mmHg 87%
    03:00 +12°C° 0 mm 4 mps 755 mmHg 87%
    04:00 +12°C° 0 mm 5 mps 754 mmHg 86%
    05:00 +13°C° 0 mm 5 mps 754 mmHg 84%
    06:00 +14°C° 0 mm 5 mps 754 mmHg 82%
    07:00 +16°C° 0 mm 6 mps 754 mmHg 76%
    08:00 +17°C° 0 mm 6 mps 754 mmHg 70%
    09:00 +20°C° 0 mm 7 mps 753 mmHg 64%
    10:00 +21°C° 0 mm 7 mps 753 mmHg 60%
    11:00 +22°C° 0 mm 8 mps 753 mmHg 56%
    12:00 +23°C° 0 mm 8 mps 752 mmHg 51%
    13:00 +23°C° 0 mm 8 mps 752 mmHg 50%
    14:00 +23°C° 0 mm 8 mps 751 mmHg 50%
    15:00 +23°C° 0 mm 8 mps 751 mmHg 49%
    16:00 +22°C° 0 mm 7 mps 751 mmHg 53%
    17:00 +21°C° 0 mm 6 mps 750 mmHg 57%
    18:00 +20°C° 0 mm 6 mps 750 mmHg 61%
    19:00 +20°C° 0 mm 6 mps 750 mmHg 60%
    20:00 +19°C° 0 mm 6 mps 750 mmHg 59%
    21:00 +17°C° 0 mm 6 mps 750 mmHg 58%
    22:00 +17°C° 0.4 mm 6 mps 750 mmHg 63%
    23:00 +16°C° 0.4 mm 5 mps 750 mmHg 68%

    24 May, Friday

    Time Temperature Precipitation Wind Pressure Humidity
    00:00 +15°C° 0.4 mm 5 mps 751 mmHg 73%
    01:00 +14°C° 0.9 mm 5 mps 751 mmHg 77%
    02:00 +13°C° 0.9 mm 5 mps 752 mmHg 81%
    03:00 +10°C° 0.9 mm 5 mps 752 mmHg 85%
    04:00 +10°C° 0 mm 5 mps 753 mmHg 84%
    05:00 +10°C° 0 mm 5 mps 753 mmHg 83%
    06:00 +10°C° 0 mm 4 mps 754 mmHg 83%
    07:00 +10°C° 0 mm 5 mps 755 mmHg 75%
    08:00 +12°C° 0 mm 5 mps 755 mmHg 68%
    09:00 +13°C° 0 mm 5 mps 756 mmHg 60%
    10:00 +14°C° 0 mm 5 mps 756 mmHg 56%
    11:00 +15°C° 0 mm 4 mps 756 mmHg 51%
    12:00 +15°C° 0 mm 4 mps 757 mmHg 46%
    13:00 +15°C° 0 mm 4 mps 757 mmHg 46%
    14:00 +15°C° 0 mm 4 mps 757 mmHg 46%
    15:00 +15°C° 0 mm 4 mps 757 mmHg 46%
    16:00 +16°C° 0 mm 3 mps 757 mmHg 51%
    17:00 +14°C° 0 mm 3 mps 757 mmHg 55%
    18:00 +14°C° 0 mm 3 mps 758 mmHg 60%
    19:00 +13°C° 0 mm 2 mps 758 mmHg 62%
    20:00 +12°C° 0 mm 2 mps 759 mmHg 65%
    21:00 +9°C° 0 mm 2 mps 759 mmHg 68%
    22:00 +9°C° 0 mm 2 mps 759 mmHg 69%
    23:00 +8°C° 0 mm 2 mps 759 mmHg 70%

    25 May, Saturday

    Time Temperature Precipitation Wind Pressure Humidity
    00:00 +8°C° 0 mm 2 mps 760 mmHg 71%
    01:00 +7°C° 0 mm 2 mps 760 mmHg 71%
    02:00 +7°C° 0 mm 2 mps 760 mmHg 72%
    03:00 +6°C° 0 mm 2 mps 760 mmHg 73%
    04:00 +7°C° 0 mm 2 mps 760 mmHg 72%
    05:00 +8°C° 0 mm 2 mps 761 mmHg 71%
    06:00 +9°C° 0 mm 3 mps 761 mmHg 70%
    07:00 +11°C° 0 mm 3 mps 761 mmHg 65%
    08:00 +13°C° 0 mm 3 mps 761 mmHg 60%
    09:00 +14°C° 0 mm 3 mps 761 mmHg 56%
    10:00 +16°C° 0 mm 3 mps 761 mmHg 53%
    11:00 +17°C° 0 mm 3 mps 760 mmHg 50%
    12:00 +19°C° 0 mm 3 mps 760 mmHg 47%
    13:00 +19°C° 0 mm 3 mps 760 mmHg 46%
    14:00 +20°C° 0 mm 3 mps 759 mmHg 46%
    15:00 +20°C° 0 mm 3 mps 759 mmHg 46%
    16:00 +20°C° 0 mm 3 mps 759 mmHg 51%
    17:00 +19°C° 0 mm 3 mps 759 mmHg 56%
    18:00 +19°C° 0 mm 3 mps 758 mmHg 61%
    19:00 +17°C° 0 mm 3 mps 758 mmHg 63%
    20:00 +15°C° 0 mm 4 mps 758 mmHg 66%
    21:00 +13°C° 0 mm 4 mps 758 mmHg 68%
    22:00 +13°C° 0 mm 4 mps 758 mmHg 66%
    23:00 +12°C° 0 mm 4 mps 758 mmHg 65%
    Show more